Retour au catalogue

FREGAT DEB

LostHEO
NORAD 45970·DEBRIS·🇷🇺 Russia

Lancé Jul 18, 2011 depuis Baikonur Cosmodrome

Loading…

Prochains Passages (prochaines 24 heures)

TLE

PériméSource: Space-Track

Époque: Aug 27, 2020, 11:29 UTC

1 45970U 11037GB  20240.47878944  .00048869  00000-0  35911-1 0  9991
2 45970  51.2214 259.6453 2828742 126.9059 262.5739  9.20163749  3155

Suivez FREGAT DEB en temps réel avec AllMySat

Download on the App Store